CST,Max TemperatureF,Mean TemperatureF,Min TemperatureF,Max Dew PointF,MeanDew PointF,Min DewpointF,Max Humidity, Mean Humidity, Min Humidity, Max Sea Level PressureIn, Mean Sea Level PressureIn, Min Sea Level PressureIn, Max VisibilityMiles, Mean VisibilityMiles, Min VisibilityMiles, Max Wind SpeedMPH, Mean Wind SpeedMPH, Max Gust SpeedMPH,PrecipitationIn, CloudCover, Events, WindDirDegrees
2013-1-1,53,48,41,50,45,37,94,87,81,30.15,30.06,29.99,10,7,1,15,9,21,0.32,8,Rain,354
2013-1-2,41,37,33,37,32,28,93,83,75,30.26,30.20,30.12,10,9,5,12,8,,0.07,7,,344
2013-1-3,46,38,30,28,26,23,86,73,43,30.41,30.33,30.21,10,10,10,14,5,,0.00,0,,330
2013-1-4,51,40,28,32,27,23,86,72,40,30.49,30.42,30.39,10,10,10,9,3,,0.00,2,,340
2013-1-5,44,37,30,37,32,27,93,82,53,30.44,30.35,30.29,10,9,5,8,2,,0.00,5,Rain,60
2013-1-6,50,42,35,39,36,30,93,86,66,30.35,30.29,30.26,10,7,0,10,3,,0.00,5,Fog,335
2013-1-7,53,40,28,34,29,25,93,78,44,30.40,30.31,30.24,10,10,7,13,5,,0.00,0,,3
2013-1-8,57,44,32,46,36,28,87,74,58,30.30,30.23,30.19,10,10,10,10,4,,0.00,3,,141
2013-1-9,59,55,51,55,52,48,94,89,77,30.33,30.27,30.23,10,7,2,9,5,,0.06,8,Rain,89
2013-1-10,68,64,59,64,61,55,94,91,88,30.27,30.15,29.99,10,6,1,18,11,25,0.01,7,Rain-Thunderstorm,141
2013-1-11,66,64,62,64,62,59,94,91,83,30.11,30.04,30.02,10,8,0,15,10,22,0.00,8,Fog,169
2013-1-12,75,70,66,66,64,63,94,85,73,30.05,29.97,29.88,10,10,5,18,12,25,0.00,7,,167
2013-1-13,73,56,39,64,54,36,94,86,73,30.18,29.97,29.84,10,9,3,20,14,24,0.17,8,Rain,154
2013-1-14,41,37,33,36,33,30,93,87,81,30.27,30.19,30.15,10,8,1,21,12,28,0.00,8,Rain,2
2013-1-15,37,36,35,36,33,32,93,91,87,30.17,30.09,30.01,10,6,2,14,9,16,0.21,8,Rain,351
2013-1-16,37,36,35,34,33,32,93,90,87,30.13,30.07,30.03,10,6,2,14,8,18,0.26,8,Rain,335
2013-1-17,46,39,32,36,31,27,93,83,62,30.43,30.19,30.04,10,6,0,20,12,32,0.21,5,Snow,330
2013-1-18,53,40,28,36,30,27,93,76,41,30.58,30.47,30.41,10,9,3,10,6,,0.00,0,,352
2013-1-19,57,42,28,36,31,27,93,77,38,30.41,30.33,30.24,10,10,10,9,2,,0.00,0,,173
2013-1-20,62,48,33,41,34,30,87,74,45,30.40,30.23,30.15,10,10,10,5,1,,0.00,0,,219
2013-1-21,51,43,35,32,28,23,87,56,37,30.28,30.24,30.16,10,10,9,18,9,17,0.00,0,,344
2013-1-22,48,37,26,43,25,19,93,61,37,30.43,30.36,30.33,10,10,10,8,4,,0.00,3,,17
2013-1-23,53,44,35,39,31,25,81,67,53,30.39,30.30,30.22,10,10,10,12,2,,0.00,6,,158
2013-1-24,59,52,46,46,37,25,82,61,36,30.36,30.26,30.21,10,10,10,13,7,,0.00,7,,32
2013-1-25,64,53,42,54,39,27,93,70,46,30.24,30.19,30.09,10,9,2,16,9,23,0.03,7,Rain,155
2013-1-26,53,45,37,43,38,36,93,78,51,30.33,30.27,30.22,10,8,4,13,6,,0.00,7,,18
2013-1-27,64,55,46,50,42,36,76,67,54,30.33,30.26,30.22,10,10,1,13,6,,0.00,5,,133
2013-1-28,69,60,51,55,50,45,82,76,60,30.29,30.21,30.14,10,10,10,16,11,,0.00,3,,152
2013-1-29,75,66,57,64,59,54,94,82,61,30.14,29.96,29.71,10,7,1,22,12,28,0.00,6,,165
2013-1-30,71,55,39,64,45,27,94,71,51,30.06,29.79,29.61,10,10,5,25,16,34,0.47,6,Rain-Thunderstorm,253
2013-1-31,55,44,32,30,27,27,81,60,33,30.24,30.16,30.08,10,10,10,14,6,16,0.00,0,,249